Probability
94 84 68 52 16 0 0 0 0 0 0 0 0 0 0 0 0 0 3 6 16 29 58 68 65 48 39 35 32 19 26 26 35 32 32 29 32 39 42 42 39 55 61 65 71 74 77 77 71
81 74 65 29 3 0 0 0 0 0 3 3 3 3 3 0 3 6 6 23 19 16 23 39 48 45 35 29 19 13 19 19 23 26 23 19 16 29 26 39 29 39 48 61 58 61 58 65 68
84 87 55 3 0 0 0 0 0 0 3 3 3 3 3 3 6 3 6 13 10 16 19 35 48 32 29 23 19 16 16 16 10 6 10 6 13 13 16 23 32 35 32 48 48 52 48 55 52
81 58 32 3 0 0 0 0 0 0 0 3 3 3 3 6 3 0 6 10 3 13 19 39 45 35 29 23 16 16 16 16 3 3 3 6 3 3 13 16 16 19 29 32 42 42 42 32 45
71 35 16 0 0 0 0 0 0 0 3 3 3 6 6 3 3 6 6 6 3 13 19 29 42 35 26 19 19 16 16 6 3 3 3 3 3 3 0 3 10 19 23 19 29 39 39 39 42
52 16 3 0 0 0 0 0 0 0 3 3 3 6 3 3 6 10 6 0 0 10 16 29 45 35 29 26 23 13 10 3 3 3 6 6 6 6 6 6 10 13 13 19 26 39 35 32 29
42 10 0 0 0 0 0 0 0 0 3 3 3 6 3 3 3 6 10 6 0 10 19 23 29 29 29 23 23 19 10 3 3 3 6 6 6 10 10 13 10 13 13 16 23 26 32 26 26
39 10 6 0 0 0 0 0 0 0 0 3 3 3 0 0 0 6 10 10 6 13 13 13 16 13 16 19 26 19 10 10 6 6 6 6 6 6 10 10 13 16 13 13 13 23 26 29 32
39 16 3 3 0 0 0 0 0 0 0 3 3 3 0 0 3 6 10 3 6 6 6 10 6 6 3 3 3 13 13 13 10 6 6 10 3 0 0 3 6 10 13 13 16 10 16 26 29
35 13 6 3 3 3 0 0 0 3 3 3 3 3 0 0 6 3 6 3 6 6 6 6 6 3 3 3 3 3 3 3 3 3 3 3 0 0 0 0 6 13 13 10 16 13 10 6 3
42 26 10 10 6 6 3 0 0 3 3 3 3 0 3 6 6 3 6 3 3 6 6 6 3 3 3 3 3 3 3 0 0 0 0 0 0 0 0 0 0 0 0 0 3 3 0 0 0
39 29 23 26 10 10 6 3 0 3 3 3 3 0 3 6 6 6 6 6 0 3 3 3 3 3 3 3 3 0 0 0 0 0 0 0 0 0 0 0 0 0 0 0 0 0 0 0 0
16 16 23 23 13 6 3 3 0 3 3 6 3 3 6 3 3 3 6 6 3 0 0 0 3 3 3 0 0 0 0 0 0 0 0 0 0 0 0 0 0 0 0 0 0 0 0 0 0
6 6 6 6 6 0 0 0 0 3 3 3 3 6 3 3 3 3 6 6 6 0 3 3 3 3 0 0 0 0 0 0 0 0 0 0 0 0 0 0 0 0 0 0 0 0 0 0 0
6 3 3 3 3 0 3 0 0 3 3 3 6 3 3 3 3 3 6 6 3 0 3 3 3 3 0 0 0 0 0 0 0 0 0 0 0 0 0 0 0 0 0 0 0 0 0 0 0
0 0 0 0 0 0 0 0 3 3 3 3 3 6 3 3 3 3 3 3 0 0 0 3 3 0 0 0 0 0 0 0 0 0 0 0 0 0 0 0 0 0 0 0 0 0 0 0 0
0 0 0 0 0 0 0 0 3 3 3 3 3 3 3 3 3 3 3 0 0 0 0 3 0 0 0 0 0 0 0 0 0 0 0 0 0 0 0 0 0 0 0 0 0 0 0 0 0
0 0 0 0 0 0 3 0 0 0 0 0 3 0 0 0 0 0 0 0 0 0 0 0 0 0 0 0 0 0 0 0 0 0 0 0 0 0 0 0 0 0 0 0 0 0 0 0 0
0 0 0 0 0 0 3 3 0 0 0 0 3 0 0 0 0 0 0 0 0 0 0 0 0 0 0 0 0 0 0 0 0 0 0 0 0 0 0 0 0 0 0 0 0 0 0 0 0
0 0 0 0 0 0 0 0 0 0 0 0 3 0 0 0 0 0 0 0 0 0 0 0 0 0 0 0 0 0 0 0 0 0 0 0 0 0 0 0 0 0 0 0 0 0 0 0 0
0 0 0 0 0 0 0 0 0 0 0 0 3 0 0 0 0 0 0 0 0 0 0 0 0 0 0 0 0 0 0 0 0 0 0 0 0 0 0 0 0 0 0 0 0 0 0 0 0
0 0 0 0 0 0 0 0 0 0 0 0 3 0 0 0 0 0 0 0 0 0 0 0 0 0 0 0 0 0 0 0 0 0 0 0 0 0 0 0 0 0 0 0 0 0 0 0 0
0 0 0 0 0 0 0 0 0 0 0 0 0 0 0 0 0 0 0 0 3 0 0 0 0 0 0 0 0 0 0 0 0 0 0 0 0 0 0 0 0 0 0 0 0 0 0 0 0
0 0 0 0 0 0 0 0 0 0 0 0 0 0 0 0 0 0 0 0 3 0 0 0 0 0 0 0 0 0 0 0 0 0 0 0 0 0 0 0 0 0 0 0 0 0 0 0 0
0 0 0 0 0 0 0 0 0 0 0 0 0 0 0 0 0 0 0 3 3 0 0 0 0 0 0 0 0 0 0 0 0 0 0 0 0 0 0 0 0 0 0 0 0 0 0 0 0
0 0 0 0 0 0 0 0 0 0 0 0 0 0 0 3 3 3 3 0 0 0 0 0 0 0 0 0 0 0 0 0 0 0 0 0 0 0 0 0 0 0 0 0 0 0 0 0 0
0 0 0 0 0 0 0 0 0 0 0 0 0 0 0 0 3 0 0 0 0 0 0 0 0 0 0 0 0 0 0 0 0 0 0 0 0 0 0 0 0 0 0 0 0 0 0 0 0
0 0 0 0 0 0 0 0 0 0 0 0 0 0 0 0 0 0 0 0 0 0 0 0 0 0 0 0 0 0 0 0 0 0 0 0 0 0 0 0 0 0 0 0 0 0 0 0 0
0 0 0 0 0 0 0 0 0 0 0 0 0 0 0 0 0 0 0 0 0 0 0 0 0 0 0 0 0 0 0 0 0 0 0 0 0 0 0 0 0 0 0 0 0 0 0 0 0
0 0 0 0 0 0 0 0 0 0 0 0 0 0 0 0 0 0 0 0 0 0 0 0 0 0 0 0 0 0 0 0 0 0 0 0 0 0 0 0 0 0 0 0 0 0 0 0 0
Height
5881 5881 5880 5880 5879 5877 5875 5875 5874 5874 5873 5873 5873 5872 5872 5872 5873 5874 5871 5868 5868 5867 5866 5865 5865 5864 5864 5863 5863 5863 5863 5862 5862 5862 5862 5861 5861 5860 5860 5860 5860 5860 5859 5860 5860 5860 5861 5861 5861
5880 5880 5880 5879 5877 5876 5875 5874 5873 5873 5873 5872 5872 5871 5871 5871 5871 5870 5868 5867 5867 5866 5865 5864 5863 5863 5862 5862 5861 5861 5861 5860 5860 5860 5859 5858 5858 5857 5857 5856 5856 5856 5856 5856 5856 5857 5857 5858 5859
5878 5878 5878 5877 5875 5875 5874 5873 5872 5872 5871 5871 5871 5870 5870 5870 5870 5869 5867 5867 5866 5865 5864 5863 5862 5861 5861 5860 5860 5859 5859 5858 5858 5857 5856 5856 5855 5855 5854 5853 5853 5852 5852 5852 5852 5853 5853 5854 5855
5877 5877 5877 5876 5874 5874 5872 5872 5871 5870 5870 5870 5870 5869 5869 5869 5868 5867 5866 5865 5864 5863 5862 5862 5861 5860 5860 5859 5858 5857 5857 5856 5855 5855 5854 5853 5852 5851 5851 5850 5849 5849 5848 5848 5848 5849 5849 5850 5851
5875 5875 5875 5873 5872 5872 5870 5870 5869 5868 5869 5869 5868 5867 5867 5868 5867 5865 5865 5864 5863 5862 5861 5861 5860 5859 5858 5858 5857 5856 5855 5854 5853 5852 5851 5850 5849 5848 5847 5846 5846 5845 5845 5844 5844 5845 5845 5846 5847
5872 5872 5872 5871 5870 5870 5869 5868 5867 5867 5867 5867 5866 5866 5866 5866 5865 5864 5864 5863 5862 5861 5860 5860 5859 5858 5857 5856 5855 5854 5853 5852 5851 5850 5848 5847 5846 5845 5844 5843 5842 5841 5841 5840 5840 5841 5841 5842 5843
5870 5869 5869 5868 5868 5867 5867 5866 5866 5866 5866 5866 5865 5865 5864 5864 5864 5863 5863 5862 5861 5860 5859 5859 5858 5857 5856 5855 5854 5852 5851 5850 5848 5847 5846 5844 5843 5842 5840 5839 5838 5837 5837 5836 5836 5836 5837 5838 5839
5865 5867 5866 5866 5865 5866 5865 5864 5864 5864 5864 5864 5864 5864 5863 5863 5863 5862 5861 5860 5860 5859 5859 5858 5857 5856 5855 5854 5852 5851 5849 5848 5846 5844 5843 5841 5840 5838 5837 5835 5834 5833 5832 5832 5832 5832 5832 5833 5834
5861 5863 5862 5862 5863 5863 5863 5863 5862 5862 5863 5862 5862 5862 5862 5861 5861 5861 5860 5859 5859 5858 5858 5857 5856 5855 5853 5852 5850 5849 5847 5845 5843 5842 5840 5838 5836 5835 5833 5831 5830 5829 5828 5828 5828 5828 5828 5829 5830
5857 5859 5859 5859 5860 5860 5860 5860 5860 5860 5861 5860 5860 5860 5860 5860 5859 5859 5858 5858 5857 5857 5856 5855 5854 5853 5852 5850 5848 5847 5845 5843 5841 5839 5837 5835 5833 5831 5829 5828 5826 5825 5824 5823 5823 5823 5823 5824 5825
5853 5854 5855 5855 5856 5856 5857 5856 5857 5858 5858 5858 5859 5859 5858 5858 5858 5857 5857 5857 5856 5856 5855 5854 5852 5851 5850 5848 5847 5844 5842 5840 5838 5836 5834 5832 5829 5827 5826 5824 5822 5820 5819 5818 5818 5818 5818 5819 5820
5849 5850 5851 5852 5852 5853 5854 5853 5854 5855 5856 5856 5857 5857 5857 5856 5856 5856 5855 5855 5855 5854 5853 5852 5850 5849 5848 5846 5844 5842 5840 5837 5835 5833 5831 5828 5826 5824 5822 5820 5817 5816 5814 5814 5813 5813 5813 5814 5815
5845 5846 5846 5848 5848 5850 5850 5851 5850 5851 5853 5853 5854 5854 5855 5854 5854 5854 5853 5853 5852 5852 5851 5850 5849 5847 5846 5844 5842 5840 5837 5835 5832 5830 5827 5825 5823 5820 5818 5815 5813 5811 5810 5809 5808 5808 5808 5809 5810
5840 5842 5843 5845 5846 5847 5848 5848 5849 5849 5850 5851 5851 5852 5852 5852 5852 5852 5852 5851 5851 5850 5849 5848 5847 5845 5844 5842 5840 5837 5835 5832 5830 5827 5824 5822 5819 5816 5814 5811 5809 5807 5805 5804 5803 5803 5803 5803 5804
5836 5838 5840 5841 5842 5843 5845 5846 5846 5846 5847 5848 5849 5849 5850 5850 5850 5850 5850 5850 5849 5848 5847 5846 5845 5843 5842 5840 5837 5835 5832 5830 5827 5824 5821 5818 5815 5812 5810 5807 5804 5802 5800 5799 5798 5797 5797 5798 5799
5833 5835 5837 5838 5839 5840 5843 5843 5843 5844 5845 5845 5846 5847 5848 5848 5848 5848 5849 5848 5847 5846 5846 5845 5843 5842 5840 5837 5835 5833 5830 5827 5824 5821 5818 5815 5812 5809 5806 5803 5800 5798 5796 5794 5793 5792 5792 5792 5793
5830 5832 5834 5836 5836 5838 5839 5840 5841 5842 5843 5843 5844 5845 5846 5846 5846 5847 5847 5846 5846 5845 5844 5843 5842 5840 5838 5836 5833 5831 5828 5825 5822 5818 5815 5812 5809 5805 5802 5799 5796 5793 5791 5789 5787 5786 5786 5787 5788
5828 5830 5832 5833 5834 5835 5837 5838 5839 5840 5841 5841 5843 5843 5844 5844 5845 5845 5845 5844 5844 5843 5842 5841 5840 5838 5836 5834 5831 5829 5826 5823 5819 5816 5813 5809 5806 5802 5799 5795 5792 5789 5786 5784 5782 5781 5781 5781 5782
5825 5828 5829 5830 5831 5833 5834 5835 5836 5837 5838 5840 5841 5841 5842 5842 5843 5843 5843 5843 5842 5841 5840 5839 5838 5836 5835 5832 5830 5827 5824 5821 5817 5814 5810 5807 5803 5799 5795 5792 5788 5785 5782 5779 5777 5776 5775 5776 5777
5823 5826 5827 5829 5830 5831 5832 5833 5834 5834 5836 5837 5838 5839 5840 5841 5841 5841 5840 5840 5840 5839 5839 5837 5836 5835 5833 5831 5828 5825 5822 5819 5815 5812 5808 5804 5800 5796 5793 5789 5785 5781 5778 5775 5772 5771 5770 5771 5772
5822 5824 5826 5827 5829 5830 5831 5832 5833 5833 5834 5835 5836 5838 5838 5838 5839 5838 5838 5838 5838 5838 5837 5836 5835 5833 5831 5829 5827 5824 5820 5817 5813 5810 5806 5802 5798 5794 5790 5786 5782 5778 5775 5771 5769 5767 5766 5766 5767
5821 5822 5824 5826 5827 5828 5830 5831 5832 5832 5833 5834 5835 5836 5836 5837 5837 5837 5836 5836 5836 5836 5835 5834 5833 5832 5830 5828 5825 5822 5819 5815 5812 5808 5804 5800 5796 5792 5788 5783 5779 5775 5772 5769 5766 5763 5762 5762 5762
5820 5822 5824 5825 5826 5828 5829 5830 5832 5831 5832 5833 5833 5834 5835 5835 5835 5835 5835 5835 5834 5834 5833 5832 5832 5830 5828 5826 5824 5820 5817 5814 5810 5806 5802 5798 5794 5790 5786 5781 5777 5773 5769 5766 5763 5761 5759 5759 5759
5820 5822 5824 5825 5826 5827 5828 5829 5831 5831 5831 5831 5832 5832 5833 5833 5833 5833 5833 5833 5833 5832 5831 5831 5830 5828 5827 5824 5822 5819 5816 5812 5809 5805 5801 5797 5792 5788 5784 5779 5775 5771 5767 5764 5761 5759 5757 5756 5756
5821 5823 5824 5825 5825 5827 5828 5829 5830 5830 5830 5830 5830 5831 5831 5831 5831 5831 5831 5831 5831 5830 5830 5829 5828 5826 5825 5823 5820 5817 5814 5811 5807 5803 5799 5795 5791 5787 5782 5778 5774 5770 5766 5763 5759 5757 5755 5754 5753
5821 5823 5825 5825 5825 5826 5827 5827 5829 5828 5828 5828 5828 5829 5829 5829 5829 5829 5829 5829 5829 5828 5828 5827 5826 5824 5823 5821 5818 5816 5813 5809 5806 5802 5798 5794 5790 5786 5781 5777 5773 5769 5765 5761 5758 5756 5754 5752 5751
5821 5822 5823 5824 5824 5825 5826 5827 5827 5827 5827 5827 5827 5827 5827 5827 5827 5827 5827 5827 5827 5826 5826 5825 5824 5822 5821 5819 5817 5814 5811 5808 5804 5801 5797 5793 5789 5785 5781 5776 5772 5768 5764 5761 5757 5755 5753 5751 5750
5821 5822 5823 5824 5824 5824 5825 5825 5826 5826 5826 5826 5826 5826 5826 5826 5825 5825 5825 5825 5825 5824 5824 5823 5822 5820 5819 5817 5815 5812 5809 5806 5803 5800 5796 5792 5788 5784 5780 5776 5772 5768 5764 5760 5757 5754 5752 5750 5749
5822 5822 5822 5823 5823 5824 5824 5827 5825 5825 5824 5824 5825 5824 5824 5824 5824 5823 5823 5823 5822 5822 5821 5821 5819 5818 5817 5815 5813 5810 5808 5805 5801 5798 5795 5791 5787 5784 5780 5776 5771 5767 5764 5760 5757 5754 5751 5749 5748
5821 5821 5822 5823 5822 5822 5823 5827 5823 5823 5822 5822 5822 5822 5822 5822 5822 5821 5821 5820 5820 5819 5819 5818 5817 5816 5814 5813 5811 5808 5806 5803 5800 5797 5794 5790 5787 5783 5779 5775 5771 5767 5764 5760 5757 5754 5751 5748 5747
Wind_Speed
5 5 4 5 5 5 5 3 4 3 1 2 2 3 4 4 4 4 4 5 5 5 5 5 6 7 7 7 8 8 9 9 10 11 12 13 14 14 16 17 17 17 18 19 19 19 20 19 18
6 5 5 5 6 6 5 4 5 5 2 2 2 2 3 3 3 4 4 5 5 5 5 5 5 6 6 6 7 8 9 10 11 12 12 13 14 15 15 16 17 17 18 19 20 20 21 21 19
7 6 5 7 7 7 6 5 5 5 3 3 2 3 2 2 3 4 4 4 5 5 5 5 4 5 5 6 6 7 8 9 10 11 12 13 13 14 15 16 17 17 18 19 20 20 21 21 20
8 8 7 8 9 7 7 6 6 4 4 4 3 3 2 2 2 3 4 5 5 5 5 4 4 4 5 5 6 7 7 8 9 10 11 11 12 13 14 15 16 17 17 18 19 20 20 21 21
10 9 9 10 11 9 8 7 5 5 3 4 4 3 3 2 2 3 4 5 5 5 4 4 4 4 5 6 6 7 7 8 9 9 10 11 12 13 14 14 15 16 17 18 20 20 20 21 22
11 11 11 11 11 10 9 6 5 4 4 4 4 3 4 2 2 3 4 4 4 4 4 4 4 5 5 6 7 7 8 9 9 10 11 11 12 13 14 15 15 16 16 18 19 20 21 21 21
13 13 13 13 12 11 9 6 6 4 5 5 5 4 4 3 2 3 4 4 4 4 4 4 4 5 6 7 7 8 9 10 10 11 12 13 14 14 15 15 16 16 17 17 19 20 21 21 22
16 15 14 14 12 11 9 8 7 6 5 5 5 5 4 3 3 3 4 4 4 4 4 4 5 5 6 7 8 9 10 10 11 12 12 13 14 15 15 16 16 16 17 17 18 19 20 21 22
17 16 16 14 14 11 9 9 8 6 5 5 5 5 4 3 3 4 4 4 4 4 4 4 5 5 6 8 8 10 11 11 12 13 13 14 15 15 15 16 16 17 17 18 18 19 20 21 22
17 17 16 16 15 12 11 9 8 7 6 6 5 5 4 4 4 4 4 4 4 4 5 5 5 6 7 8 9 11 12 12 13 14 14 15 15 16 16 16 17 17 17 17 18 19 20 21 21
19 17 17 16 15 13 11 9 8 8 6 6 6 5 4 4 4 4 4 4 4 4 5 5 5 6 7 9 10 12 13 14 14 15 15 15 16 16 16 16 17 16 16 17 18 19 19 21 21
20 19 18 16 14 12 11 10 9 8 7 7 6 6 5 5 5 5 4 4 3 4 5 5 6 7 8 10 11 12 13 14 15 15 16 16 16 16 16 16 16 17 17 17 18 18 19 21 22
20 19 18 16 15 13 12 11 9 8 8 8 7 6 5 5 5 5 5 4 3 4 5 6 6 8 9 10 12 13 14 15 15 16 16 17 17 17 17 17 16 16 16 17 17 18 19 20 21
19 19 17 16 15 14 13 12 10 9 9 8 8 6 6 6 5 4 4 4 4 4 5 6 7 8 9 11 13 14 14 15 16 17 17 18 18 18 17 17 17 16 16 16 16 17 18 19 21
20 19 18 16 15 13 13 13 12 10 9 9 8 7 6 6 5 4 4 4 4 4 5 6 7 9 10 11 13 14 15 16 17 17 18 19 19 18 18 18 18 17 17 16 16 17 18 19 20
19 16 15 14 14 14 13 11 11 10 9 9 8 7 6 5 4 4 4 4 4 4 5 6 8 9 10 12 14 15 16 17 18 18 18 19 19 18 18 18 18 18 17 17 17 17 17 18 19
16 14 13 13 13 14 12 9 8 10 8 7 7 6 5 4 4 4 4 4 4 4 5 6 8 9 11 13 14 15 16 17 18 19 19 19 19 19 19 19 19 18 18 17 17 17 17 17 18
14 13 12 12 13 13 11 8 8 9 8 7 7 6 5 4 4 5 5 5 4 4 5 6 8 9 11 13 14 15 16 17 18 19 19 19 20 19 19 19 19 18 18 17 17 16 16 17 18
12 11 11 11 11 10 8 7 8 9 8 8 7 6 5 5 5 5 5 5 5 5 5 6 7 9 11 13 14 15 16 17 18 19 19 19 20 19 19 19 19 18 18 16 16 15 15 16 18
10 10 9 10 8 7 7 6 6 7 7 7 7 6 6 5 5 5 5 5 5 5 6 6 7 9 11 13 14 15 16 17 18 19 19 19 20 20 19 19 19 18 17 16 15 14 14 15 17
8 8 10 9 8 7 6 5 5 5 6 6 5 5 5 5 5 5 5 5 5 5 6 6 7 9 11 13 14 15 16 17 18 18 19 19 19 20 19 19 20 18 17 15 14 13 12 13 15
7 7 8 7 6 6 5 4 4 4 4 4 4 4 3 4 5 5 5 5 5 6 6 6 7 9 11 12 14 15 16 17 18 18 19 19 20 20 20 20 19 18 17 15 14 12 11 11 13
6 8 7 6 5 5 4 4 3 3 3 3 3 3 3 4 5 5 5 5 6 6 6 6 7 8 11 12 14 15 16 17 18 18 19 19 20 20 20 20 19 18 17 15 13 11 10 10 11
6 6 5 5 5 4 4 3 2 1 2 3 3 3 4 4 4 5 5 5 6 6 6 7 8 9 10 12 13 14 15 16 17 18 19 19 20 20 20 20 19 18 16 15 13 11 9 8 9
5 5 5 6 6 5 4 2 2 1 0 1 3 4 4 4 4 5 5 6 6 6 6 7 8 9 10 12 13 14 15 16 17 18 19 19 19 19 19 19 19 17 16 14 13 11 8 7 7
5 5 5 5 5 5 4 2 1 1 2 2 3 4 4 5 5 5 6 6 6 7 7 7 8 9 10 12 13 14 14 15 16 18 18 19 19 19 19 19 18 17 16 14 12 10 8 6 5
5 5 4 5 5 5 4 2 0 1 2 3 3 4 4 5 5 6 7 7 7 7 7 8 9 9 10 11 12 13 14 15 16 17 18 18 18 19 18 18 18 17 16 15 13 10 8 6 5
4 4 4 5 5 5 4 3 2 3 3 3 3 4 4 5 6 7 8 8 8 8 8 8 9 9 10 11 12 13 14 15 16 16 17 18 18 18 18 18 18 18 17 16 14 11 9 7 5
3 3 3 4 5 5 6 4 5 5 5 5 4 5 5 5 7 7 8 9 9 9 9 9 9 10 10 11 12 13 13 14 15 16 16 17 18 18 18 18 18 18 17 16 14 12 10 8 6
3 3 4 5 5 6 7 6 7 6 6 6 6 6 6 7 7 8 8 9 10 10 10 10 10 10 11 11 12 13 13 14 14 15 16 16 17 18 18 18 18 17 17 15 14 13 11 8 6
Wind_Direction
314 322 332 333 329 329 324 325 331 330 354 3 333 320 323 333 333 328 319 313 313 313 310 308 306 302 298 293 288 285 281 277 276 276 279 276 273 272 269 268 267 265 261 258 257 257 257 258 259
298 302 311 309 311 314 313 316 332 322 338 351 328 307 318 328 330 326 319 322 326 325 320 320 318 314 311 305 300 294 285 281 280 280 280 280 278 275 272 270 267 267 264 259 256 257 258 257 258
288 289 293 296 305 305 309 312 324 322 318 316 305 300 313 331 336 323 320 329 330 331 330 332 330 329 321 312 305 301 297 292 289 287 286 284 281 278 274 273 270 268 263 258 257 256 256 255 255
281 282 283 285 293 303 306 315 320 309 302 300 296 297 294 323 337 325 325 332 337 337 338 341 342 342 333 323 316 312 307 304 300 296 293 291 286 283 279 276 274 271 265 260 259 257 256 254 252
272 272 274 282 284 290 293 301 302 303 302 305 298 306 298 323 349 337 330 337 345 345 343 346 352 351 345 338 333 327 319 313 309 304 300 297 293 290 287 280 277 273 267 264 261 257 256 254 252
265 265 271 276 278 285 285 285 300 305 314 303 295 300 301 320 348 340 332 339 345 343 348 350 348 349 348 344 339 332 327 322 316 310 304 301 297 294 292 285 280 277 271 266 263 260 256 252 250
260 262 265 269 272 277 279 287 303 302 303 299 296 295 298 311 329 333 336 338 343 348 353 353 347 345 345 342 338 334 329 324 320 314 309 305 302 299 295 290 284 281 275 269 264 262 258 253 251
254 257 259 264 268 272 276 285 295 295 295 297 297 296 297 301 309 318 327 334 340 345 347 347 342 339 339 338 337 333 329 325 322 318 314 310 306 303 299 295 287 283 277 272 266 261 256 253 251
251 254 255 261 265 266 273 279 284 293 287 281 286 290 286 287 295 306 308 316 325 329 337 336 331 334 336 336 336 333 333 330 327 323 319 314 310 307 303 298 291 286 280 274 268 263 258 253 250
249 249 252 255 261 265 267 269 272 283 281 275 278 277 274 279 284 300 301 303 310 322 334 331 329 334 338 338 336 334 333 331 328 326 323 318 313 309 304 300 296 290 282 275 269 264 259 253 250
250 247 248 252 256 260 255 255 261 264 267 261 264 264 268 277 283 293 290 284 296 311 326 326 330 338 342 340 337 335 332 331 329 327 324 321 317 312 308 303 299 294 286 278 271 266 260 254 250
245 247 248 245 246 253 259 258 254 254 255 252 251 252 264 276 282 282 283 281 289 301 322 328 336 339 339 338 339 339 335 332 330 329 326 324 322 317 311 308 304 297 289 281 273 267 262 256 250
241 243 246 243 243 247 253 259 259 253 248 242 243 248 257 267 275 282 283 284 291 307 319 328 336 338 339 339 339 339 336 333 332 331 328 326 324 320 316 312 307 302 294 285 277 269 264 258 251
239 241 240 241 245 246 246 249 255 255 248 241 241 247 255 262 267 278 284 285 293 302 314 325 334 336 338 338 338 338 336 335 333 331 329 328 326 321 318 315 310 305 298 290 280 271 264 258 252
239 240 238 240 241 241 246 249 248 244 241 239 237 245 249 250 256 267 276 285 289 298 316 325 330 335 338 340 340 340 339 337 335 332 330 329 328 323 320 318 314 308 301 293 283 274 265 259 252
237 238 235 235 243 242 245 251 245 242 242 236 235 245 254 252 254 262 275 285 289 300 312 322 327 333 336 339 340 340 340 339 337 334 331 331 329 326 323 320 317 312 304 295 285 276 268 259 251
235 236 234 232 232 234 242 247 245 241 245 235 232 236 246 255 262 263 274 282 285 297 310 319 324 331 336 338 338 339 340 340 338 336 333 333 331 327 324 321 319 314 309 299 289 279 269 259 250
231 231 233 232 231 234 239 242 240 239 236 231 236 241 241 246 250 257 270 277 284 295 306 317 324 331 335 337 338 340 340 340 339 337 335 335 334 331 327 324 322 319 313 304 293 281 269 258 250
225 227 233 231 226 230 232 236 241 238 231 228 229 236 242 243 249 257 264 272 287 296 302 313 324 332 334 336 338 339 340 340 340 339 337 336 336 334 331 327 326 323 317 309 298 286 271 259 251
215 221 222 220 223 226 226 236 236 227 221 218 221 225 233 244 254 264 269 273 284 294 303 313 320 329 333 336 338 339 341 342 341 341 340 338 338 337 335 332 330 326 320 313 304 291 276 262 252
201 205 210 215 223 224 226 235 226 219 214 217 221 219 229 246 255 265 271 273 280 289 301 310 319 328 332 336 338 340 342 343 343 343 342 341 340 339 338 336 334 330 326 320 312 298 282 264 251
197 197 201 202 212 211 215 219 221 222 222 218 214 212 240 259 261 262 270 276 279 285 295 306 317 325 330 334 338 340 343 344 345 345 344 343 342 341 341 340 337 334 330 325 319 308 291 267 253
193 190 193 200 205 201 202 209 204 207 205 223 224 227 249 258 256 257 267 272 275 283 290 301 311 320 328 333 337 340 342 344 346 347 347 346 346 344 343 343 342 340 337 332 326 316 298 275 258
181 183 189 195 199 202 194 187 176 174 202 219 233 248 264 251 250 259 267 271 275 286 294 300 306 316 326 332 336 339 341 343 346 348 349 348 348 347 347 347 346 345 343 340 334 324 307 283 263
174 181 185 185 181 180 172 166 142 133 174 248 255 264 273 269 267 270 272 272 277 285 291 299 306 314 323 329 333 336 339 342 346 349 350 350 350 350 351 352 351 349 348 345 340 333 318 294 268
167 176 183 180 179 180 174 166 186 31 3 328 301 283 279 275 271 273 277 278 279 285 292 299 306 313 320 326 331 334 338 342 346 348 349 351 352 353 354 354 354 354 352 351 346 340 331 312 278
161 169 181 182 183 185 183 170 226 337 346 331 313 295 286 287 283 279 279 280 281 286 293 299 304 311 318 325 329 333 337 341 344 347 349 351 353 355 356 356 357 357 355 354 352 347 340 327 295
160 163 164 184 192 207 214 226 267 288 311 325 326 315 301 298 296 287 281 279 280 285 291 298 303 307 314 321 327 331 335 338 341 345 349 351 353 355 356 358 358 359 359 357 356 352 346 332 309
174 188 201 208 217 217 222 238 267 280 295 308 316 312 305 301 297 289 282 279 280 283 289 294 299 304 311 318 325 329 333 337 341 345 348 351 353 354 356 357 357 359 359 359 359 355 347 334 315
188 206 226 229 230 242 251 251 261 273 289 299 307 310 306 301 296 290 283 279 278 279 283 288 293 300 308 315 320 325 329 334 339 342 345 349 352 353 354 356 356 358 360 0 360 359 357 347 332